Weather History for KRNO - March, 2014

Change the Weather History Date:

Sunday, March 16, 2014

  Actual Average Record
Temperature  
Mean Temperature 56 °F 46 °F  
Max Temperature 77 °F 58 °F 79 °F (2007)
Min Temperature 35 °F 34 °F 3 °F (1952)
Degree Days  
Heating Degree Days 9 19  
Month to date heating degree days 257 326  
Since 1 July heating degree days 3841 3964  
Cooling Degree Days 0 0  
Month to date cooling degree days 0 0  
Year to date cooling degree days 0 0  
Growing Degree Days 6 (Base 50)    
Moisture  
Dew Point 20 °F    
Average Humidity 34    
Maximum Humidity 59    
Minimum Humidity 9    
Precipitation  
Precipitation 0.00 in 0.02 in 0.52 in (1899)
Month to date precipitation 0.08 0.48  
Year to date precipitation 1.15 2.53  
Snow  
Snow 0.00 in 0.00 in 3.60 in (1975)
Month to date snowfall 0.0 1.3  
Since 1 July snowfall 6.2 20.3  
Snow Depth 0.00 in    
Sea Level Pressure  
Sea Level Pressure 30.24 in    
Wind  
Wind Speed 9 mph (WSW)    
Max Wind Speed 30 mph    
Max Gust Speed 37 mph    
Visibility 10 miles    
Events      
T = Trace of Precipitation, MM = Missing Value Source: NWS Daily Summary

Daily Weather History Graph

Daily Weather History Graph

Search for Another Location

Airport or City:

Trip Planner

Search our weather history database for the weather conditions in past years. The results will help you decide how hot, cold, wet, or windy it might be!

Date:

Astronomy

Mar. 16, 2014 Rise Set
Actual Time 7:08 AM PDT 7:07 PM PDT
Civil Twilight 6:41 AM PDT 7:33 PM PDT
Nautical Twilight 6:10 AM PDT 8:05 PM PDT
Astronomical Twilight 5:39 AM PDT 8:36 PM PDT
Moon 7:29 PM PDT (3/16) 6:55 AM PDT (3/16)
Length of Visible Light 12h 52m
Length of Day
11h 58m
Full, 100% of the Moon is Illuminated
Mar 16
Full
Mar 23
Last Quarter
Mar 30
New
Apr 7
First Quarter
Apr 15
Full

Hourly Weather History & Observations

Time (PDT) Temp. Windchill Dew Point Humidity Pressure Visibility Wind Dir Wind Speed Gust Speed Precip Events Conditions
12:55 AM 46.0 °F - 21.9 °F 39% 30.37 in 10.0 mi Calm Calm - N/A   Partly Cloudy
1:55 AM 45.0 °F 43.5 °F 21.9 °F 40% 30.38 in 10.0 mi WNW 3.5 mph - N/A   Partly Cloudy
2:55 AM 39.9 °F - 23.0 °F 51% 30.38 in 10.0 mi Calm Calm - N/A   Partly Cloudy
3:55 AM 41.0 °F 38.0 °F 23.0 °F 49% 30.36 in 10.0 mi NNW 4.6 mph - N/A   Partly Cloudy
4:55 AM 37.9 °F - 23.0 °F 55% 30.37 in 10.0 mi Calm Calm - N/A   Partly Cloudy
5:55 AM 37.0 °F - 21.9 °F 54% 30.36 in 10.0 mi Calm Calm - N/A   Scattered Clouds
6:55 AM 36.0 °F - 23.0 °F 59% 30.38 in 10.0 mi Calm Calm - N/A   Scattered Clouds
7:55 AM 37.9 °F - 23.0 °F 55% 30.39 in 10.0 mi Calm Calm - N/A   Mostly Cloudy
8:55 AM 43.0 °F - 24.1 °F 47% 30.39 in 10.0 mi Calm Calm - N/A   Mostly Cloudy
9:55 AM 48.0 °F - 21.9 °F 36% 30.37 in 10.0 mi Calm Calm - N/A   Mostly Cloudy
10:55 AM 55.0 °F - 21.0 °F 27% 30.34 in 10.0 mi Calm Calm - N/A   Mostly Cloudy
11:55 AM 61.0 °F - 21.9 °F 22% 30.30 in 10.0 mi Calm Calm - N/A   Mostly Cloudy
12:55 PM 69.1 °F - 18.0 °F 14% 30.24 in 10.0 mi Variable 3.5 mph - N/A   Mostly Cloudy
1:55 PM 73.0 °F - 14.0 °F 11% 30.19 in 10.0 mi South 8.1 mph - N/A   Mostly Cloudy
2:26 PM 75.9 °F - 10.0 °F 8% 30.25 in 10.0 mi WNW 19.6 mph 27.6 mph N/A   Mostly Cloudy
2:55 PM 75.9 °F - 12.0 °F 9% 30.14 in 10.0 mi West 18.4 mph 26.5 mph N/A   Mostly Cloudy
3:55 PM 73.9 °F - 15.1 °F 11% 30.13 in 10.0 mi WNW 24.2 mph - N/A   Mostly Cloudy
4:55 PM 73.0 °F - 17.1 °F 12% 30.12 in 10.0 mi West 19.6 mph 25.3 mph N/A   Mostly Cloudy
5:55 PM 71.1 °F - 18.0 °F 13% 30.12 in 10.0 mi West 15.0 mph 23.0 mph N/A   Mostly Cloudy
6:55 PM 66.9 °F - 18.0 °F 15% 30.14 in 10.0 mi West 11.5 mph - N/A   Mostly Cloudy
7:55 PM 63.0 °F - 21.0 °F 20% 30.12 in 10.0 mi WSW 10.4 mph - N/A   Mostly Cloudy
8:55 PM 60.1 °F - 21.9 °F 23% 30.10 in 10.0 mi SSW 20.7 mph 25.3 mph N/A   Mostly Cloudy
9:55 PM 59.0 °F - 21.0 °F 23% 30.05 in 10.0 mi South 25.3 mph 33.4 mph N/A   Mostly Cloudy
10:55 PM 57.0 °F - 19.9 °F 24% 30.01 in 10.0 mi SSE 21.9 mph 29.9 mph N/A   Mostly Cloudy
11:55 PM 57.0 °F - 14.0 °F 18% 29.98 in 10.0 mi Variable 3.5 mph - N/A   Mostly Cloudy